Date String (YYYY-MM-DD hh:mm:ss) UTC,Instrument flags,Ambient pressure (hPa),Sample flow (lpm),Bypass flow (lpm),Sample temperature (°C),Ambient temperature (°C),ASC tube jacket temperature (°C),LED temperature (°C),Box temperature (°C),Sample RH (%),Span deviation,Mass concentration (μg/m³),Mass concentration (μg/m³),Mass concentration (μg/m³)
DateTimeUTC,F1_M11,P_M11,Q1_M11,Q2_M11,T1_M11,T2_M11,T3_M11,T4_M11,T5_M11,U1_M11,ZSPAN_M11,X0_M11,X2_M11,X1_M11
2021-11-22 06:00:00,,0832.2,5.02,0.00,25.5,24.6,00.0,34.6,27.3,09.1,0000.0,0011.02,0004.93,0004.52
2021-11-22 06:01:00,,0832.1,4.99,0.00,25.5,24.6,00.0,34.6,27.3,09.1,0000.0,0010.82,0004.99,0004.54
2021-11-22 06:02:00,,0832.1,5.00,0.00,25.5,24.6,00.0,34.6,27.3,09.1,0000.0,0010.24,0004.97,0004.49
2021-11-22 06:03:00,,0832.1,4.99,0.00,25.6,24.6,00.0,34.6,27.3,09.1,0000.0,0008.88,0004.54,0004.09
2021-11-22 06:04:00,,0831.9,5.01,0.00,25.5,24.6,00.0,34.6,27.3,09.1,0000.0,0008.46,0004.28,0003.82
2021-11-22 06:05:00,,0832.0,4.98,0.00,25.6,24.6,00.0,34.6,27.3,09.1,0000.0,0008.48,0004.26,0003.79
2021-11-22 06:06:00,,0832.0,5.00,0.00,25.5,24.6,00.0,34.6,27.3,09.2,0000.0,0009.11,0004.29,0003.79
2021-11-22 06:07:00,,0832.0,4.99,0.00,25.5,24.6,00.0,34.6,27.3,09.2,0000.0,0009.22,0004.30,0003.80
2021-11-22 06:08:00,,0832.0,5.01,0.00,25.5,24.6,00.0,34.6,27.3,09.3,0000.0,0008.85,0004.27,0003.80
2021-11-22 06:09:00,,0832.0,4.99,0.00,25.5,24.6,00.0,34.5,27.3,09.2,0000.0,0008.90,0004.23,0003.81
2021-11-22 06:10:00,,0832.1,5.00,0.00,25.5,24.6,00.0,34.5,27.3,09.1,0000.0,0008.95,0004.27,0003.82
2021-11-22 06:11:00,,0832.1,5.01,0.00,25.5,24.6,00.0,34.5,27.3,09.2,0000.0,0009.43,0004.30,0003.85
2021-11-22 06:12:00,,0831.9,5.00,0.00,25.5,24.6,00.0,34.5,27.3,09.0,0000.0,0010.04,0004.30,0003.86
2021-11-22 06:13:00,,0832.0,5.00,0.00,25.5,24.6,00.0,34.5,27.3,09.1,0000.0,0010.23,0004.30,0003.86
2021-11-22 06:14:00,,0831.9,5.01,0.00,25.5,24.6,00.0,34.5,27.3,09.2,0000.0,0010.27,0004.30,0003.86
2021-11-22 06:15:00,,0832.0,4.98,0.00,25.5,24.6,00.0,34.5,27.3,09.2,0000.0,0010.24,0004.26,0003.84
2021-11-22 06:16:00,,0831.8,5.01,0.00,25.5,24.6,00.0,34.5,27.3,09.2,0000.0,0010.10,0004.21,0003.82
2021-11-22 06:17:00,,0831.8,4.98,0.00,25.5,24.6,00.0,34.5,27.3,09.2,0000.0,0009.38,0004.16,0003.79
2021-11-22 06:18:00,,0831.7,5.01,0.00,25.5,24.6,00.0,34.5,27.3,09.3,0000.0,0009.35,0004.11,0003.77
2021-11-22 06:19:00,,0831.8,4.99,0.00,25.5,24.6,00.0,34.5,27.3,09.5,0000.0,0009.42,0004.11,0003.74
2021-11-22 06:20:00,,0831.8,5.01,0.00,25.5,24.6,00.0,34.5,27.3,09.5,0000.0,0009.25,0004.12,0003.71
2021-11-22 06:21:00,,0831.8,4.99,0.00,25.5,24.6,00.0,34.5,27.3,09.4,0000.0,0009.20,0004.09,0003.69
2021-11-22 06:22:00,,0831.8,5.01,0.00,25.5,24.6,00.0,34.5,27.3,09.3,0000.0,0009.14,0004.09,0003.67
2021-11-22 06:23:00,,0831.7,4.99,0.00,25.4,24.5,00.0,34.5,27.2,08.9,0000.0,0008.77,0004.02,0003.62
2021-11-22 06:24:00,,0831.7,5.00,0.00,25.4,24.5,00.0,34.5,27.1,08.3,0000.0,0008.02,0003.93,0003.55
2021-11-22 06:25:00,,0831.7,5.01,0.00,25.3,24.4,00.0,34.5,27.1,08.7,0000.0,0008.06,0003.88,0003.50
2021-11-22 06:26:00,,0831.7,4.99,0.00,25.3,24.4,00.0,34.4,27.1,08.8,0000.0,0008.06,0003.88,0003.47
2021-11-22 06:27:00,,0831.7,5.00,0.00,25.3,24.4,00.0,34.4,27.0,09.1,0000.0,0008.18,0003.89,0003.45
2021-11-22 06:28:00,,0831.7,5.00,0.00,25.3,24.4,00.0,34.4,27.0,09.2,0000.0,0008.52,0003.93,0003.46
2021-11-22 06:29:00,,0831.7,4.99,0.00,25.3,24.4,00.0,34.4,27.0,09.2,0000.0,0008.79,0003.93,0003.46
2021-11-22 06:30:00,,0831.8,5.00,0.00,25.3,24.4,00.0,34.4,27.1,08.8,0000.0,0008.63,0003.89,0003.44
2021-11-22 06:31:00,,0831.8,5.00,0.00,25.3,24.4,00.0,34.4,27.0,09.1,0000.0,0009.42,0003.83,0003.42
2021-11-22 06:32:00,,0831.7,4.99,0.00,25.3,24.4,00.0,34.4,27.0,09.1,0000.0,0009.51,0003.81,0003.41
2021-11-22 06:33:00,,0831.7,5.02,0.00,25.3,24.4,00.0,34.4,27.1,08.9,0000.0,0009.25,0003.77,0003.40
2021-11-22 06:34:00,,0831.8,4.99,0.00,25.3,24.4,00.0,34.4,27.0,09.2,0000.0,0008.72,0003.77,0003.39
2021-11-22 06:35:00,,0831.9,5.00,0.00,25.3,24.4,00.0,34.4,27.1,08.9,0000.0,0009.29,0003.81,0003.43
2021-11-22 06:36:00,,0831.7,5.01,0.00,25.3,24.4,00.0,34.3,27.1,08.5,0000.0,0009.20,0003.79,0003.45
2021-11-22 06:37:00,,0831.7,5.00,0.00,25.3,24.4,00.0,34.3,27.1,08.6,0000.0,0009.20,0003.78,0003.45
2021-11-22 06:38:00,,0831.8,4.99,0.00,25.3,24.4,00.0,34.3,27.1,09.0,0000.0,0009.67,0003.76,0003.46
2021-11-22 06:39:00,,0831.9,5.01,0.00,25.3,24.4,00.0,34.3,27.1,09.2,0000.0,0009.53,0003.73,0003.45
2021-11-22 06:40:00,,0831.9,5.00,0.00,25.3,24.4,00.0,34.3,27.1,09.2,0000.0,0009.37,0003.70,0003.44
2021-11-22 06:41:00,,0831.7,4.99,0.00,25.3,24.4,00.0,34.3,27.1,09.3,0000.0,0009.75,0003.72,0003.46
2021-11-22 06:42:00,,0831.7,5.01,0.00,25.3,24.4,00.0,34.3,27.1,09.3,0000.0,0008.90,0003.73,0003.48
2021-11-22 06:43:00,,0831.7,4.98,0.00,25.3,24.4,00.0,34.3,27.1,09.3,0000.0,0008.78,0003.75,0003.49
2021-11-22 06:44:00,,0831.8,5.01,0.00,25.3,24.4,00.0,34.3,27.1,09.3,0000.0,0008.79,0003.77,0003.51
2021-11-22 06:45:00,,0831.9,4.99,0.00,25.3,24.4,00.0,34.3,27.1,09.3,0000.0,0008.83,0003.78,0003.52
2021-11-22 06:46:00,,0831.9,5.00,0.00,25.3,24.4,00.0,34.3,27.1,09.2,0000.0,0008.20,0003.78,0003.52
2021-11-22 06:47:00,,0831.8,5.01,0.00,25.3,24.4,00.0,34.3,27.1,09.1,0000.0,0008.30,0003.82,0003.54
2021-11-22 06:48:00,,0831.7,4.99,0.00,25.3,24.4,00.0,34.3,27.1,09.2,0000.0,0008.51,0003.87,0003.57
2021-11-22 06:49:00,,0831.8,5.01,0.00,25.3,24.4,00.0,34.3,27.1,09.2,0000.0,0008.34,0003.90,0003.58
2021-11-22 06:50:00,,0831.8,4.99,0.00,25.3,24.4,00.0,34.3,27.1,09.1,0000.0,0008.21,0003.90,0003.58
2021-11-22 06:51:00,,0831.8,5.01,0.00,25.3,24.4,00.0,34.3,27.1,09.2,0000.0,0008.57,0003.90,0003.56
2021-11-22 06:52:00,,0831.9,5.00,0.00,25.3,24.4,00.0,34.3,27.1,09.1,0000.0,0008.47,0003.92,0003.55
2021-11-22 06:53:00,,0832.0,4.99,0.00,25.3,24.4,00.0,34.3,27.1,09.1,0000.0,0009.12,0003.95,0003.53
2021-11-22 06:54:00,,0832.0,5.01,0.00,25.3,24.4,00.0,34.3,27.1,08.9,0000.0,0009.94,0003.95,0003.52
2021-11-22 06:55:00,,0832.0,5.00,0.00,25.3,24.4,00.0,34.3,27.1,08.9,0000.0,0010.70,0003.97,0003.50
2021-11-22 06:56:00,,0832.0,5.00,0.00,25.3,24.4,00.0,34.3,27.0,08.8,0000.0,0011.65,0004.00,0003.46
2021-11-22 06:57:00,,0831.9,5.01,0.00,25.3,24.4,00.0,34.3,27.1,08.9,0000.0,0011.83,0004.01,0003.42
2021-11-22 06:58:00,,0832.0,4.99,0.00,25.3,24.4,00.0,34.3,27.1,09.0,0000.0,0011.73,0004.01,0003.40
2021-11-22 06:59:00,,0831.9,5.01,0.00,25.3,24.4,00.0,34.3,27.0,09.1,0000.0,0011.60,0004.00,0003.37
